• Join FlightAware (Why Join?)
  • Login
  • US Flag 
06:45PM EST


 

Airport Tracker/Info


-or-


 

Live Flight TrackerFlight Track Log ✈ SWA472 ✈ 10-May-2013 ✈ KONT - KSMF

Flight Track Log - Related Links

Times and Time Zones

All times are in EDT time to prevent confusion due to time zone crossing. See the SWA472 flight status page for this flight to view local times or setup timezone preferences in your user account.

Time Position Orientation Groundspeed Altitude Reporting Facility
EDT Latitude Longitude Course Direction KTS MPH feet Rate Location/Type
09:10AM 34.0500 -117.5833 273° West 172 198 2,400  Level Southern California TRACON
09:13AM 34.0547 -117.6839 273° West 286 329 8,600 2,537 Climbing Los Angeles Center
09:14AM 34.1086 -117.7819 304° West 294 338 10,900 2,852 Climbing Los Angeles Center
09:15AM 34.1647 -117.8767 306° West 346 398 14,400 3,492 Climbing Los Angeles Center
09:16AM 34.2217 -117.9750 305° West 357 411 18,000 3,322 Climbing Los Angeles Center
09:17AM 34.2794 -118.0781 304° West 368 423 21,100 2,876 Climbing Los Angeles Center
09:18AM 34.3475 -118.1803 309° West 387 445 23,800 2,607 Climbing Los Angeles Center
09:19AM 34.4267 -118.2731 316° Northwest 413 475 26,400 2,361 Climbing Los Angeles Center
09:20AM 34.5261 -118.3336 333° Northwest 403 464 28,600 2,231 Climbing Los Angeles Center
09:21AM 34.6286 -118.3972 333° Northwest 413 475 30,900 2,331 Climbing Los Angeles Center
09:22AM 34.7344 -118.4619 333° Northwest 410 472 33,300 2,115 Climbing Los Angeles Center
09:23AM 34.8303 -118.5200 334° Northwest 406 467 35,200 1,328 Climbing Los Angeles Center
09:24AM 34.9414 -118.5881 333° Northwest 402 463 36,000 393 Climbing Los Angeles Center
09:25AM 35.0406 -118.6481 334° Northwest 399 459 36,000  Level Los Angeles Center
09:26AM 35.1369 -118.7094 332° Northwest 394 453 36,000  Level Los Angeles Center
09:27AM 35.2383 -118.7692 334° Northwest 404 465 36,000  Level Los Angeles Center
09:28AM 35.3358 -118.8297 333° Northwest 398 458 36,000  Level Los Angeles Center
09:29AM 35.4331 -118.8911 333° Northwest 396 456 36,000  Level Los Angeles Center
09:30AM 35.5311 -118.9517 333° Northwest 396 456 36,000  Level Los Angeles Center
09:31AM 35.6442 -119.0283 331° Northwest 393 452 36,000  Level Los Angeles Center
09:32AM 35.6972 -119.0669 329° Northwest 388 447 36,000  Level Oakland Center
09:33AM 35.7914 -119.1353 330° Northwest 391 450 36,000  Level Oakland Center
09:34AM 35.8869 -119.2047 330° Northwest 396 456 36,000  Level Oakland Center
09:35AM 35.9819 -119.2736 330° Northwest 398 458 36,000  Level Oakland Center
09:36AM 36.0775 -119.3431 330° Northwest 400 460 36,000  Level Oakland Center
09:37AM 36.1908 -119.4267 329° Northwest 398 458 36,000  Level Oakland Center
09:38AM 36.2853 -119.4964 329° Northwest 397 457 36,000  Level Oakland Center
09:39AM 36.3803 -119.5656 330° Northwest 398 458 36,000  Level Oakland Center
09:40AM 36.4756 -119.6364 329° Northwest 400 460 36,000  Level Oakland Center
09:41AM 36.5697 -119.7064 329° Northwest 398 458 36,000  Level Oakland Center
09:42AM 36.6631 -119.7783 328° Northwest 398 458 36,000  Level Oakland Center
09:43AM 36.7586 -119.8506 329° Northwest 401 461 36,000 -49 Level Oakland Center
09:44AM 36.8525 -119.9186 330° Northwest 392 451 35,900 -595 Descending Oakland Center
09:45AM 36.9472 -119.9911 329° Northwest 397 457 34,800 -1,636 Descending Oakland Center
09:46AM 37.0397 -120.0611 329° Northwest 392 451 32,600 -1,525 Descending Oakland Center
09:47AM 37.1292 -120.1289 329° Northwest 376 433 31,700 -1,721 Descending Oakland Center
09:48AM 37.2206 -120.1989 329° Northwest 387 445 29,100 -2,607 Descending Oakland Center
09:49AM 37.3306 -120.2822 329° Northwest 384 442 26,400 -2,459 Descending Oakland Center
09:50AM 37.4214 -120.3464 331° Northwest 376 433 24,100 -1,705 Descending Oakland Center
09:51AM 37.4667 -120.4000 317° Northwest 379 436 23,700 -830 Descending Northern Cal TRACON
09:52AM 37.5500 -120.4667 328° Northwest 377 434 22,800 -950 Descending Northern Cal TRACON
09:53AM 37.6333 -120.5667 316° Northwest 373 429 21,800 -944 Descending Northern Cal TRACON
09:53AM 37.6683 -120.5917 331° Northwest 372 428 21,400 -1,000 Descending Oakland Center
09:54AM 37.7167 -120.6333 326° Northwest 373 429 20,800 -1,055 Descending Northern Cal TRACON
09:55AM 37.8000 -120.7167 322° Northwest 371 427 19,800 -947 Descending Northern Cal TRACON
09:55AM 37.8667 -120.8000 315° West 360 414 19,000 -848 Descending Northern Cal TRACON
09:56AM 37.9072 -120.8331 327° Northwest 360 414 18,500 -1,576 Descending Oakland Center
09:57AM 37.9847 -120.9119 321° Northwest 356 410 16,400 -2,410 Descending Oakland Center
09:58AM 38.0636 -120.9914 322° Northwest 362 417 13,600 -2,390 Descending Oakland Center
09:59AM 38.1289 -121.0844 312° West 353 406 11,500 -1,567 Descending Oakland Center
10:00AM 38.2167 -121.2000 314° West 307 353 10,100 -1,182 Descending Northern Cal TRACON
10:01AM 38.2667 -121.2833 307° West 279 321 8,900 -1,050 Descending Northern Cal TRACON
10:02AM 38.3167 -121.3500 314° West 273 314 8,000 -700 Descending Northern Cal TRACON
10:03AM 38.3667 -121.4333 307° West 273 314 7,500 -950 Descending Northern Cal TRACON
10:04AM 38.4167 -121.5000 314° West 280 322 6,100 -1,105 Descending Northern Cal TRACON
10:05AM 38.4500 -121.5667 303° West 254 292 5,400 -771 Descending Northern Cal TRACON
10:06AM 38.5000 -121.6000 332° Northwest 206 237 4,700 -1,096 Descending Northern Cal TRACON
10:07AM 38.5500 -121.6000 360° North 180 207 3,300 -1,368 Descending Northern Cal TRACON
10:08AM 38.5833 -121.6000 360° North 178 205 2,100 -1,160 Descending Northern Cal TRACON
10:09AM 38.6333 -121.6000 360° North 153 176 1,000 -900 Descending Northern Cal TRACON
10:10AM 38.6667 -121.6000 360° North 135 155 300 -764 Descending Northern Cal TRACON
10:12AM 38.6833 -121.5833 46° Northeast  Level FlightAware Approximate
10:19AM 38.6954 -121.5908 46° Northeast  Level Estimated